Location: Arroyo de Fuente Vieja
(40.4902°N, 4.1175°W)
Time: 21:40:53
(UTC+00:00)

CSL-04 Rocket - Pass Details

Date: 18 April 2024
Orbit: 804 x 860 km, 98.8° (Epoch: 23 May)

Event Time Altitude Azimuth Distance (km) Brightness Sun altitude
Exits shadow 20:12:54 - 164° (SSE) 2,677 5.9 -13.8°
Reaches altitude 10° 20:13:25 10° 164° (SSE) 2,478 5.7 -13.9°
Maximum altitude 20:18:56 88° 77° (ENE) 854 3.7 -14.8°
Drops below altitude 10° 20:24:25 10° 347° (NNW) 2,464 6.7 -15.7°
Sets 20:26:46 0° 347° (NNW) 3,395 7.5 -16.1°
